Regional Weather Roundup
Issued by NWS Upton, NY

Home | Current Version | Previous Version | Text Only | Print | Product List | Glossary On
Versions: 1 2 3 4 5 6 7 8 9 10 11 12 13 14 15 16 17 18 19 20 21 22 23 24 25 26 27
000
ASUS41 KOKX 240908
RWROKX

REGIONAL WEATHER ROUNDUP
NATIONAL WEATHER SERVICE NEW YORK NY
400 AM EST TUE JAN 24 2017

NOTE: "FAIR" INDICATES FEW OR NO CLOUDS BELOW 12,000 FEET WITH NO
SIGNIFICANT WEATHER AND/OR OBSTRUCTIONS TO VISIBILITY.

NYZ071-072-176-178-NJZ106-104-241000-
NEW YORK CITY METRO AREA

CITY           SKY/WX    TMP DP  RH WIND       PRES   REMARKS
Central Park   MIX PCPN  37  35  92 NE15G22   29.37S FOG     WCI  28
Wall St Helipt LGT RAIN  39  36  89 NE16G28   29.36R FOG     WCI  30
LaGuardia APRT LGT RAIN  39  35  86 NE21G32   29.35F FOG     WCI  29
Kennedy INTL   LGT RAIN  38  36  92 NE22G37   29.34S FOG     WCI  27
Breezy Point     N/A     37 N/A N/A NE18G32     N/A  WCI  27
Newark/Liberty LGT RAIN  37  35  92 N18       29.37S FOG     WCI  27
Teterboro      DRIZZLE   37  35  92 N13G20    29.36F WCI  29
$$

NYZ177-179-078>081-241000-
LONG ISLAND NEW YORK

CITY           SKY/WX    TMP DP  RH WIND       PRES   REMARKS
Jones Beach      N/A     39 N/A N/A NE25G33     N/A  WCI  28
Matinecock PT  NOT AVBL
Farmingdale    LGT RAIN  39  36  89 NE24G35   29.30F FOG     WCI  28
MacArthur/ISP  LGT RAIN  40  38  93 NE30G38   29.31F FOG     WCI  28
Shirley        LGT RAIN  40  39  97 NE13G32   29.32F FOG     WCI  32
Westhampton    CLOUDY    41  37  86 NE25G45   29.33S
Southampton    NOT AVBL
Bridgehampton  NOT AVBL
East Hampton   CLOUDY    40  37  91 NE26G43   29.33R WCI  28
Montauk        NOT AVBL
$$

NYZ052-065-067-241000-
HUDSON VALLEY

CITY           SKY/WX    TMP DP  RH WIND       PRES   REMARKS
White Plains   LGT RAIN  36  32  85 NE15G23   29.35S FOG     WCI  27
Newburgh       CLOUDY    34  32  93 NE17G32   29.44  FOG     WCI  23
Montgomery     LGT SNOW  33  31  92 NE17G28   29.43S FOG     WCI  22
Poughkeepsie   MIX PCPN  32  30  92 N12       29.46F FOG     WCI  23
Albany         SLEET     33  30  88 N9        29.58F FOG     WCI  25
$$

NJZ001-105-106-008-010-013-015-019>022-104-241000-
NEW JERSEY

CITY           SKY/WX    TMP DP  RH WIND       PRES   REMARKS
Newark/Liberty LGT RAIN  37  35  92 N18       29.37S FOG     WCI  27
Teterboro      DRIZZLE   37  35  92 N13G20    29.36F WCI  29
Caldwell       LGT RAIN  36  33  89 NE10G17   29.38F WCI  28
Somerville     LGT RAIN  38  35  89 N8        29.38S FOG     WCI  32
Linden         DRIZZLE   37  35  91 NE12G18   29.37S WCI  29
Sussex         FRZ RAIN  33  31  92 NE14G23   29.41F FOG     WCI  23
Andover          N/A     32  31  96 NE8       29.41S WCI  25
Trenton        LGT SNOW  38  36  92 N12G18    29.37F FOG     WCI  30
Millville      CLOUDY    39  38  96 N16G24    29.33S WCI  30
Atlantic City  LGT RAIN  39  37  92 N17       29.29S FOG     WCI  30
Wrightstown    LGT RAIN  38  37  93 N18       29.31F WCI  29
Toms River     LGT RAIN  39  38  96 N10G18    29.31F FOG     WCI  32
Belmar         LGT RAIN  38  37  97 N17G24    29.31F FOG     WCI  28
$$

PAZ047>061-062-071-241000-
EASTERN PENNSYLVANIA

CITY           SKY/WX    TMP DP  RH WIND       PRES   REMARKS
Philadelphia   LGT RAIN  39  36  89 N14       29.39S WCI  31
Allentown      LGT RAIN  36  32  85 N8        29.45S FOG     WCI  30
Scranton       LGT SNOW  34  33  96 CALM      29.48S FOG
$$

CTZ002-004>006-009-010-012-RIZ004-006-007-MAZ004-011-015-241000-
SOUTHERN NEW ENGLAND
 IN CT

CITY           SKY/WX    TMP DP  RH WIND       PRES   REMARKS
Bradley INTL   LGTSLEET  34  30  85 NE23G32   29.51F FOG     WCI  22
Hartford       LGT SNOW  34  31  88 N15       29.47F FOG     WCI  24
Danbury        LGT RAIN  34  30  85 NE22G35   29.40F WCI  22
Wtrbury/Oxford CLOUDY    34  28  80 NE28G43   29.36R WCI  20
Bridgeport     LGT RAIN  38  33  82 NE25G37   29.36F WCI  27
Meriden        LGT RAIN  35  31  85 N15G25    29.43F WCI  25
New Haven      CLOUDY    38  34  85 NE25G36   29.35F WCI  27
Chester        CLOUDY    37  36  93 NE18G35   29.37F FOG     WCI  27
Groton         LGT RAIN  40  39  97 NE32G46   29.33F FOG     WCI  28
Wilimantic     RAIN      38  34  85 NE20G37   29.45F FOG     WCI  28

 IN RI

CITY           SKY/WX    TMP DP  RH WIND       PRES   REMARKS
Providence     RAIN      39  36  89 NE29G37   29.49F FOG     WCI  27
Block Island   NOT AVBL
Westerly       LGT RAIN  41  36  82 NE24G47   29.37F
 IN MA

CITY           SKY/WX    TMP DP  RH WIND       PRES   REMARKS
Boston         HVY RAIN  38  37  97 NE39G47   29.62F FOG     WCI  24
Worcester      LGT SNOW  29  27  92 NE17G35   29.53F VSB 3/4 WCI  17
Westfield      MIX PCPN  31  32 100 N12G21    29.55S WCI  22
Provincetown   RAIN      42  41  96 E33G47    29.49F FOG
Nantucket      LGT RAIN  48  45  89 E29G39    29.33F FOG
$$

ANZ330-335-338-340-345-350-353-355-241000-
COASTAL MARINE OBSERVATIONS


STATION/POSITION TIME  SKY/WX   TEMP    WIND        PRES    VSBY  WAVE
                                AIR SEA DIR/SP/G                  HT/PER
                 (UTC)          (F)     (DEG/KT/KT) (MB)    (MI)  (FT/S)
NY HARB ENTRANCE 0750            41 43   40/ 29/ 37  990.6         15/11
20 S FIRE ISLAND 0850            44 47   50/ 35/ 43  988.3         17/10
GREAT SOUTH BAY  NOT AVBL
23 SSW MONTAUK P 0750            43 46   50/ 43/ 52  990.4         16/11
15 E BARNEGAT LI 0830               46                N/A          19/11
HUDSON CANYON    0750            56 51               986.9         16/13
KINGS POINT      NOT AVBL
EXECUTION ROCKS  0845            38      40/ 21/ 31   N/A
CENTRAL LI SOUND NOT AVBL
EASTERN LI SOUND NOT AVBL
ROBBINS REEF     0842            39      30/ 21/ 28  993.9
$$


>>>>>>>>>>>>>>>>>>>>>>>>>>>> KEY <<<<<<<<<<<<<<<<<<<<<<<<<<<
>                                                          <
>     SKY/WX - Sky Condition/Present Weather               <
>     TMP    - Temperature in Fahrenheit                   <
>     DP     - Dew Point in Fahrenheit                     <
>     RH     - Relative Humidity in Percent                <
>     WIND   - Direction (from) and Speed in MPH           <
>     PRES   - Mean Sea Level Pressure (inches of Hg)      <
>     WCI    - Wind Chill Index                            <
>     VSB    - VISIBILITY IN MILES                         <
>     HX     - HEAT INDEX                                  <
>     TC     - TEMPERATURE IN CELSIUS                      <
>     VRB    - VARIABLE WIND DIRECTION                     <
>                                                          <
>>>>>>>>>>>>>>>>>>>>>>>>>>>> KEY <<<<<<<<<<<<<<<<<<<<<<<<<<<




USA.gov is the U.S. government's official web portal to all federal, state and local government web resources and services.